Preview of NWS' New Version of Forecast
This preview is not operational and should not be used for support decisions.

Regional Weather Roundup (RWR)

Issued by National Weather Service (NWS)

                            
000
ASUS45 KCYS 171910
RWRWY 

WYOMING REGIONAL WEATHER ROUNDUP
NATIONAL WEATHER SERVICE CHEYENNE WY
100 PM MDT SAT AUG 17 2019

NOTE:  "FAIR" INDICATES FEW OR NO CLOUDS BELOW 12,000 FEET
WITH NO SIGNIFICANT WEATHER AND/OR OBSTRUCTIONS TO VISIBILITY.

WYZ001-172000-
...YELLOWSTONE NATIONAL PARK...
  
CITY           SKY/WX    TMP DP  RH WIND       PRES   REMARKS
LK YELLOWSTONE   N/A     62  32  32 W8G18     30.07S                  
W YELLOWSTONE  NOT AVBL                                               

$$
WYZ002>013-054>058-071-098>099-172000-
...NORTHERN WYOMING...
  
CITY           SKY/WX    TMP DP  RH WIND       PRES   REMARKS
JACKSON        MOSUNNY   70  32  24 SW15G30   30.01S                  
CODY           SUNNY     64  52  64 NE15G22   29.89F                  
GREYBULL       SUNNY     75  45  34 VRB7      29.81F                  
WORLAND        MOSUNNY   72  49  44 CALM      29.83F                  
SHERIDAN       CLOUDY    63  52  67 N8        29.89S                  
BUFFALO        PTSUNNY   63  49  60 N9        29.90F                  
GILLETTE       CLOUDY    64  54  69 N12       29.85F                  
HULETT         CLOUDY    63  54  72 NE15      29.86F                  
NEWCASTLE      FAIR      79  46  31 SE9G17    29.79F                  

$$
WYZ014>020-022>026-101>103-172000-
...CENTRAL WYOMING...
  
CITY           SKY/WX    TMP DP  RH WIND       PRES   REMARKS
BIG PINEY      MOSUNNY   72  20  14 VRB6G20   30.04F                  
PINEDALE       SUNNY     70  19  14 SW5       30.05F                  
DUBOIS         FAIR      70  18  13 NW17G26   29.99S                  
LANDER         PTSUNNY   76  29  17 VRB5      29.89F                  
RIVERTON       PTSUNNY   75  32  20 SE6       29.88F                  
CASPER         SUNNY     84  24  11 W22G39    29.83F                  
DOUGLAS        SUNNY     88  28  11 W23G33    29.82F                  

$$
WYZ021-027>030-104>119-172000-
...SOUTHERN WYOMING...
  
CITY           SKY/WX    TMP DP  RH WIND       PRES   REMARKS
EVANSTON       SUNNY     75  32  20 W18G33    30.10F                  
KEMMERER       MOSUNNY   72  23  16 W24G33    30.09S                  
FORT BRIDGER   NOT AVBL                                               
ROCK SPRINGS   SUNNY     78  33  19 W22G38    30.03F                  
DIXON          NOT AVBL                                               
RAWLINS        LGT RAIN  81  28  14 W28G38    29.99F                  
SARATOGA       PTSUNNY   77  32  19 SW18G32   30.03F                  
LARAMIE        PTSUNNY   75  30  19 SW23      30.02F                  
CHEYENNE       CLOUDY    83  33  16 W24G30    29.96F                  
TORRINGTON     SUNNY     86  46  24 N8        29.77F                  
PINE BLUFFS    FAIR      77  41  27 S20G26    29.90R                  

$$